Weather History for Galena, AK

Change the Weather History Date:

Thursday, December 13, 2012

  Actual Average Record
Temperature  
Mean Temperature -16 °F -  
Max Temperature 5 °F 2 °F 33 °F (1986)
Min Temperature -38 °F -14 °F -49 °F (1964)
Degree Days  
Heating Degree Days 80    
Moisture  
Dew Point -9 °F    
Average Humidity 81    
Maximum Humidity 87    
Minimum Humidity 73    
Precipitation  
Precipitation 0.00 in - - ()
Sea Level Pressure  
Sea Level Pressure 29.42 in    
Wind  
Wind Speed 4 mph (NW)    
Max Wind Speed 8 mph    
Max Gust Speed -    
Visibility 6 miles    
Events Snow    
Averages and records for this station are not official NWS values.
T = Trace of Precipitation, MM = Missing Value Source: NWS Daily Summary

Daily Weather History Graph

Daily Weather History Graph

Search for Another Location

Airport:

Trip Planner

Search our weather history database for the weather conditions in past years. The results will help you decide how hot, cold, wet, or windy it might be!

Date:

Astronomy

Dec. 13, 2012 Rise Set
Actual Time 11:24 AM AKST 3:19 PM AKST
Civil Twilight 10:02 AM AKST 4:42 PM AKST
Nautical Twilight 8:51 AM AKST 5:53 PM AKST
Astronomical Twilight 7:49 AM AKST 6:54 PM AKST
Moon 11:26 AM AKST (12/13) 4:35 PM AKST (12/13)
Length of Visible Light 6h 40m
Length of Day
3h 54m
New Moon, 0% of the Moon is Illuminated
Dec 13
New Moon
Dec 19
First Quarter
Dec 28
Full
Jan 4
Last Quarter
Jan 11
New

Hourly Weather History & Observations

Time (AKST) Temp. Windchill Dew Point Humidity Pressure Visibility Wind Dir Wind Speed Gust Speed Precip Events Conditions
1:24 AM 5.0 °F -4.1 °F 1.4 °F 85% 29.20 in 2.0 mi NW 4.6 mph - 0.00 in Snow Light Snow
1:42 AM 5.0 °F -6.9 °F 1.4 °F 85% 29.21 in 3.0 mi NW 6.9 mph - 0.00 in Snow Light Snow
1:51 AM 5.0 °F -6.9 °F 1.4 °F 85% 29.22 in 2.0 mi NNW 6.9 mph - 0.00 in Snow Light Snow
1:57 AM 5.0 °F -4.1 °F 1.9 °F 87% 29.24 in 1.8 mi NW 4.6 mph - 0.00 in Snow Light Snow
2:02 AM 5.0 °F -5.6 °F 1.4 °F 85% 29.22 in 1.8 mi NW 5.8 mph - 0.00 in Snow Light Snow
2:05 AM 5.0 °F -5.6 °F 1.4 °F 85% 29.22 in 2.0 mi NW 5.8 mph - 0.00 in Snow Light Snow
2:22 AM 5.0 °F -4.1 °F 1.4 °F 85% 29.23 in 3.0 mi NW 4.6 mph - 0.00 in Snow Light Snow
2:42 AM 5.0 °F -5.6 °F 1.4 °F 85% 29.24 in 6.0 mi NW 5.8 mph - 0.00 in Snow Light Snow
2:53 AM 5.0 °F -5.6 °F 1.4 °F 85% 29.25 in 5.0 mi NW 5.8 mph - 0.00 in Snow Light Snow
2:58 AM 5.0 °F -4.1 °F 1.9 °F 87% 29.27 in 4.0 mi NW 4.6 mph - 0.00 in Snow Light Snow
3:24 AM 5.0 °F -4.1 °F 1.4 °F 85% 29.26 in 4.0 mi NW 4.6 mph - 0.00 in Snow Light Snow
3:33 AM 5.0 °F -6.9 °F 1.4 °F 85% 29.26 in 5.0 mi NW 6.9 mph - 0.00 in Snow Light Snow
3:46 AM 5.0 °F -6.9 °F 1.4 °F 85% 29.27 in 2.5 mi NW 6.9 mph - 0.00 in Snow Light Snow
3:58 AM 5.0 °F -6.9 °F 1.9 °F 87% 29.29 in 2.5 mi NW 6.9 mph - 0.00 in Snow Light Snow
4:02 AM 5.0 °F -5.6 °F 1.4 °F 85% 29.28 in 3.0 mi NW 5.8 mph - 0.00 in Snow Light Snow
4:50 AM 5.0 °F -6.9 °F 1.4 °F 85% 29.30 in 7.0 mi WNW 6.9 mph - 0.00 in Snow Light Snow
4:58 AM 5.0 °F -5.6 °F 1.9 °F 87% 29.32 in 8.0 mi WNW 5.8 mph - 0.00 in Snow Light Snow
5:58 AM 5.0 °F -5.6 °F 1.9 °F 87% 29.36 in 9.0 mi WNW 5.8 mph - 0.00 in Snow Light Snow
6:27 AM 5.0 °F -6.9 °F 1.4 °F 85% 29.36 in 9.0 mi WNW 6.9 mph - 0.00 in Snow Light Snow
6:34 AM 5.0 °F -4.1 °F 1.4 °F 85% 29.36 in 9.0 mi WNW 4.6 mph - 0.00 in Snow Light Snow
6:46 AM 5.0 °F -8.1 °F 1.4 °F 85% 29.37 in 9.0 mi NW 8.1 mph - 0.00 in Snow Light Snow
6:58 AM 3.9 °F -5.3 °F -0.0 °F 84% 29.40 in 9.0 mi NW 4.6 mph - 0.00 in Snow Light Snow
7:58 AM 3.0 °F -4.4 °F -2.9 °F 76% 29.43 in 10.0 mi NW 3.5 mph - 0.00 in   Overcast
8:58 AM -0.9 °F -12.7 °F -6.0 °F 79% 29.47 in 10.0 mi NW 5.8 mph - N/A   Clear
9:58 AM -4.0 °F -14.6 °F -9.0 °F 79% 29.50 in 10.0 mi NW 4.6 mph - N/A   Clear
10:58 AM -9.9 °F -19.2 °F -16.1 °F 74% 29.52 in 5.0 mi SSW 3.5 mph - N/A   Haze
11:58 AM -13.0 °F - -18.9 °F 75% 29.53 in 8.0 mi Calm Calm - N/A   Clear
12:58 PM -14.1 °F - -18.0 °F 82% 29.55 in 5.0 mi Calm Calm - N/A   Clear
1:30 PM -13.0 °F - -18.4 °F 77% 29.52 in 1.5 mi Calm Calm - N/A   Haze
1:35 PM -14.8 °F - -20.2 °F 77% 29.53 in 1.0 mi Calm Calm - N/A   Haze
1:42 PM -14.8 °F - -20.2 °F 77% 29.53 in 2.0 mi Calm Calm - N/A   Haze
1:47 PM -16.6 °F - -22.0 °F 76% 29.52 in 5.0 mi Calm Calm - N/A   Haze
2:58 PM -22.0 °F - -27.0 °F 77% 29.56 in 10.0 mi Calm Calm - N/A   Clear
3:58 PM -23.1 °F - -29.0 °F 74% 29.57 in 10.0 mi Calm Calm - N/A   Clear
4:58 PM -26.0 °F - -31.0 °F 77% 29.57 in 10.0 mi Calm Calm - N/A   Clear
5:58 PM -29.0 °F - -35.0 °F 73% 29.59 in 2.0 mi Calm Calm - N/A   Haze
6:03 PM -29.2 °F - -34.6 °F 75% 29.56 in 1.8 mi Calm Calm - N/A   Haze
6:07 PM -29.2 °F - -34.6 °F 75% 29.56 in 2.5 mi Calm Calm - N/A   Haze
6:11 PM -29.2 °F - -34.6 °F 75% 29.56 in 3.0 mi Calm Calm - N/A   Haze
6:58 PM -29.9 °F - - N/A% 29.60 in 10.0 mi Calm Calm - N/A   Clear
7:58 PM -32.1 °F - - N/A% 29.60 in 10.0 mi Calm Calm - N/A   Clear
8:58 PM -34.1 °F - - N/A% 29.59 in 8.0 mi Calm Calm - N/A   Clear
9:58 PM -36.0 °F - - N/A% 29.60 in 5.0 mi Calm Calm - N/A   Haze
10:58 PM -36.9 °F - - N/A% 29.60 in 7.0 mi Calm Calm - N/A   Clear
11:58 PM -38.0 °F - - N/A% 29.61 in 3.0 mi Calm Calm - N/A   Clear